Skip Navigation Links
NOAA logo - Click to go to the NOAA homepage
NOAA's National Weather Service
Alaska Aviation Weather Unit
  NWS logo - Click to go to the NWS homepage
Left Navbar Graphic     08 AKDT = 16 GMT

   
NOAA is celebrating 200 years of science, service, and stewardship. Visit the NOAA 200th celebration Web site to learn more.
USA.gov is the U.S. Government's official Web portal to all Federal, state and local government Web resources and services.
Facebook
NWS on Facebook

Important Change Regarding the AAWU Web Presence

 

Over the last several months, the AAWU has been working to navigate its webpages to a nationally supported server. Security, as well as other needs, have necessitated the change.  In the process, we have made an effort to enhance the functionality of our website, as well as some of our products. As of June 20, 2017, aawu.arh.noaa.gov will be discontinued. The new AAWU web address is weather.gov/aawu. It is now live and will run in-parallel with the old site until it is discontinued. Please send any feedback or questions regarding the new webpages to nws.ar.aawu.webauthors@noaa.gov.  Thank you for your patience during this time of transition.
AAWU Home :: Display TAF Add Bookmark
TAF PAEN 291556Z 2916/3012 22008KT P6SM -SHRA SCT025 OVC035
      TEMPO 2916/2918 BKN025
     FM292200 22010KT P6SM VCSH SCT035 BKN060
     FM300100 21008KT P6SM FEW150 SCT250
     FM300700 VRB04KT P6SM VCFG FEW002 FEW250=

METAR PAEN 291053Z AUTO 07006KT 10SM FEW055 OVC070 06/02 A2983= METAR PAEN 291153Z AUTO 13003KT 10SM -RA OVC040 06/02 A2983= METAR PAEN 291253Z AUTO 12004KT 10SM -RA OVC042 05/03 A2984= METAR PAEN 291353Z 22006KT 10SM -RA OVC047 06/05 A2984= METAR PAEN 291453Z 23006KT 10SM -RA FEW026 OVC034 05/04 A2985= METAR PAEN 291553Z 22007KT 10SM BKN030 OVC037 06/05 A2986= SPECI PAEN 291612Z 22008KT 10SM FEW008 BKN028 OVC035 06/05 A2986 RMK AO2 T00560050= PAEN 291648Z 20007KT 10SM FEW008 SCT019 OVC039 06/05 A2987= SPECI PAEN 291648Z 20007KT 10SM FEW008 SCT019 OVC039 06/05 A2987 RMK AO2=
 Alaska TAF Map

NOAA's National Weather Service
Alaska Aviation Weather Unit
6930 Sand Lake Road
Anchorage, AK 99502-1845
Disclaimer
Credits
Glossary
Privacy Policy
About Us
Career Opportunities
Contact AAWU Internet Services Site last modified: April, 17th 2012